Blair, NE

9:58 AM CDT on August 21, 2017 (GMT -0500)
Blair Municipal

Weather History for KBTA - June, 2012

Change the Weather History Date:

Wednesday, June 20, 2012

  Actual Average (KOMA) Record (KOMA)
Temperature  
Mean Temperature 72 °F -  
Max Temperature 82 °F 84 °F 103 °F (1974)
Min Temperature 61 °F 62 °F 47 °F (1876)
Cooling Degree Days 6    
Growing Degree Days 22 (Base 50)    
Moisture  
Dew Point 66 °F    
Average Humidity 75    
Maximum Humidity 94    
Minimum Humidity 61    
Precipitation  
Precipitation 0.93 in - - ()
Sea Level Pressure  
Sea Level Pressure 29.81 in    
Wind  
Wind Speed 17 mph (South)    
Max Wind Speed 25 mph    
Max Gust Speed 32 mph    
Visibility 9 miles    
Events Rain , Thunderstorm    
Averages and records for this station are not official NWS values.
T = Trace of Precipitation, MM = Missing Value Source: NWS Daily Summary

Daily Weather History Graph

Daily Weather History Graph

Search for Another Location

Airport or City:

Trip Planner

Search our weather history database for the weather conditions in past years. The results will help you decide how hot, cold, wet, or windy it might be!

Date:

Astronomy

Jun. 20, 2012 Rise Set
Actual Time 5:50 AM CDT 9:01 PM CDT
Civil Twilight 5:16 AM CDT 9:35 PM CDT
Nautical Twilight 4:33 AM CDT 10:19 PM CDT
Astronomical Twilight 3:41 AM CDT 11:11 PM CDT
Moon 6:52 AM CDT (6/20) 9:46 PM CDT (6/20)
Length of Visible Light 16h 18m
Length of Day
15h 10m
New Moon, 1% of the Moon is Illuminated
Jun 20
New Moon
Jun 26
First Quarter
Jul 3
Full
Jul 10
Last Quarter
Jul 18
New

Hourly Weather History & Observations

Time (CDT) Temp. Heat Index Dew Point Humidity Pressure Visibility Wind Dir Wind Speed Gust Speed Precip Events Conditions
12:15 AM 80.1 °F 82.0 °F 65.7 °F 61% 29.75 in 10.0 mi South 17.3 mph 25.3 mph N/A   Clear
12:35 AM 79.7 °F - 65.7 °F 62% 29.75 in 10.0 mi South 17.3 mph 24.2 mph N/A   Clear
12:55 AM 79.3 °F - 65.5 °F 62% 29.74 in 10.0 mi SSE 18.4 mph 29.9 mph N/A   Clear
1:15 AM 79.0 °F - 65.3 °F 63% 29.73 in 10.0 mi SSE 17.3 mph 21.9 mph N/A   Clear
1:35 AM 78.6 °F - 65.5 °F 64% 29.72 in 10.0 mi South 18.4 mph 27.6 mph N/A   Clear
1:55 AM 78.8 °F - 65.7 °F 64% 29.72 in 10.0 mi South 19.6 mph 25.3 mph N/A   Clear
2:15 AM 78.3 °F - 65.8 °F 65% 29.71 in 10.0 mi South 17.3 mph 26.5 mph N/A   Clear
2:35 AM 78.3 °F - 66.2 °F 66% 29.71 in 10.0 mi South 19.6 mph 27.6 mph N/A   Clear
2:55 AM 78.3 °F - 66.2 °F 66% 29.71 in 10.0 mi South 20.7 mph 27.6 mph N/A   Clear
3:15 AM 77.9 °F - 66.4 °F 68% 29.71 in 10.0 mi South 23.0 mph 28.8 mph N/A   Clear
3:35 AM 77.7 °F - 66.6 °F 68% 29.70 in 10.0 mi South 23.0 mph 28.8 mph N/A   Clear
3:55 AM 77.7 °F - 66.7 °F 69% 29.70 in 10.0 mi South 24.2 mph 32.2 mph N/A   Clear
4:15 AM 77.4 °F - 67.1 °F 71% 29.70 in 10.0 mi South 23.0 mph 28.8 mph N/A   Clear
4:35 AM 77.0 °F - 67.1 °F 71% 29.70 in 10.0 mi South 24.2 mph 31.1 mph N/A   Clear
5:15 AM 77.0 °F - 67.1 °F 71% 29.73 in 10.0 mi South 17.3 mph 25.3 mph N/A   Clear
5:35 AM 76.5 °F - 67.3 °F 73% 29.74 in 10.0 mi South 18.4 mph 23.0 mph N/A   Clear
5:55 AM 76.3 °F - 67.1 °F 73% 29.75 in 10.0 mi South 17.3 mph 23.0 mph N/A   Clear
6:15 AM 76.8 °F - 66.7 °F 71% 29.75 in 10.0 mi South 20.7 mph 26.5 mph N/A   Clear
6:35 AM 76.8 °F - 66.6 °F 70% 29.76 in 10.0 mi South 19.6 mph 23.0 mph N/A   Clear
6:55 AM 77.0 °F - 66.7 °F 70% 29.76 in 10.0 mi South 20.7 mph 28.8 mph N/A   Clear
7:15 AM 76.8 °F - 67.1 °F 72% 29.76 in 10.0 mi South 17.3 mph 23.0 mph N/A   Clear
7:35 AM 77.0 °F - 67.1 °F 71% 29.76 in 10.0 mi South 18.4 mph 25.3 mph N/A   Scattered Clouds
7:55 AM 77.0 °F - 67.3 °F 72% 29.77 in 10.0 mi South 12.7 mph 23.0 mph N/A   Scattered Clouds
8:15 AM 76.6 °F - 67.5 °F 73% 29.78 in 10.0 mi South 15.0 mph 21.9 mph N/A   Overcast
8:35 AM 77.5 °F - 68.0 °F 72% 29.80 in 10.0 mi SSW 16.1 mph 21.9 mph N/A   Overcast
8:55 AM 77.2 °F - 67.8 °F 73% 29.81 in 10.0 mi SSW 23.0 mph 27.6 mph N/A   Overcast
9:15 AM 77.0 °F - 68.0 °F 74% 29.81 in 10.0 mi SSW 16.1 mph - N/A   Overcast
9:35 AM 77.9 °F - 68.4 °F 72% 29.80 in 10.0 mi South 17.3 mph 24.2 mph N/A   Overcast
9:55 AM 77.9 °F - 68.2 °F 72% 29.81 in 10.0 mi South 17.3 mph 26.5 mph N/A   Overcast
10:15 AM 77.9 °F - 68.2 °F 72% 29.80 in 10.0 mi South 17.3 mph 27.6 mph N/A   Overcast
10:35 AM 79.9 °F - 69.6 °F 71% 29.81 in 10.0 mi South 19.6 mph - N/A   Scattered Clouds
10:55 AM 80.8 °F 83.9 °F 69.3 °F 68% 29.80 in 10.0 mi South 18.4 mph 24.2 mph N/A   Scattered Clouds
11:15 AM 81.5 °F 84.8 °F 69.3 °F 66% 29.80 in 10.0 mi South 23.0 mph 29.9 mph N/A   Mostly Cloudy
11:35 AM 81.3 °F 84.5 °F 69.1 °F 66% 29.80 in 10.0 mi South 21.9 mph 27.6 mph N/A   Overcast
11:55 AM 81.1 °F 84.4 °F 69.1 °F 67% 29.81 in 10.0 mi South 18.4 mph 26.5 mph N/A   Overcast
12:15 PM 82.4 °F 86.1 °F 69.6 °F 65% 29.81 in 10.0 mi South 18.4 mph 26.5 mph N/A   Overcast
12:35 PM 81.5 °F 84.9 °F 69.4 °F 67% 29.81 in 10.0 mi South 18.4 mph 23.0 mph N/A   Overcast
12:55 PM 80.6 °F 83.6 °F 69.3 °F 68% 29.81 in 10.0 mi South 15.0 mph 21.9 mph N/A   Overcast
1:15 PM 81.0 °F 84.1 °F 69.3 °F 67% 29.81 in 10.0 mi South 13.8 mph 20.7 mph N/A   Overcast
1:35 PM 81.0 °F 84.2 °F 69.4 °F 68% 29.81 in 10.0 mi South 13.8 mph 19.6 mph N/A   Overcast
1:55 PM 80.8 °F 83.9 °F 69.4 °F 68% 29.81 in 10.0 mi South 11.5 mph - N/A   Overcast
2:15 PM 80.8 °F 84.1 °F 69.6 °F 69% 29.82 in 10.0 mi South 11.5 mph 18.4 mph N/A   Overcast
2:35 PM 80.6 °F 83.9 °F 69.8 °F 70% 29.81 in 10.0 mi South 9.2 mph 12.7 mph N/A   Overcast
2:55 PM 80.6 °F 83.9 °F 70.0 °F 70% 29.81 in 10.0 mi South 16.1 mph 20.7 mph N/A Thunderstorm Overcast
3:15 PM 79.2 °F - 70.9 °F 76% 29.81 in 10.0 mi South 9.2 mph - N/A Rain Light Rain
3:35 PM 79.7 °F - 70.5 °F 73% 29.79 in 10.0 mi South 15.0 mph 21.9 mph N/A   Overcast
3:55 PM 80.1 °F 83.4 °F 70.7 °F 73% 29.78 in 10.0 mi South 11.5 mph - N/A Thunderstorm Overcast
4:15 PM 80.2 °F 83.3 °F 69.8 °F 70% 29.79 in 10.0 mi South 13.8 mph 20.7 mph N/A Thunderstorm Overcast
4:35 PM 79.7 °F - 70.2 °F 73% 29.80 in 10.0 mi SW 10.4 mph - N/A Rain Rain
4:55 PM 73.6 °F - 70.2 °F 89% 29.81 in 4.0 mi WNW 12.7 mph - 0.02 in Rain , Thunderstorm Heavy Thunderstorms and Rain
5:15 PM 70.2 °F - 66.9 °F 89% 29.82 in 7.0 mi NW 21.9 mph 29.9 mph 0.09 in Rain , Thunderstorm Light Thunderstorms and Rain
5:35 PM 67.3 °F - 64.8 °F 92% 29.82 in 0.8 mi NNW 19.6 mph 26.5 mph 0.34 in Rain , Thunderstorm Light Thunderstorms and Rain
5:55 PM 67.3 °F - 65.3 °F 93% 29.82 in 1.0 mi NNW 25.3 mph 29.9 mph 0.58 in Rain , Thunderstorm Light Thunderstorms and Rain
6:15 PM 67.1 °F - 64.9 °F 93% 29.85 in 1.8 mi NW 16.1 mph 23.0 mph 0.20 in Rain , Thunderstorm Heavy Thunderstorms and Rain
6:35 PM 67.1 °F - 64.6 °F 92% 29.86 in 10.0 mi NW 23.0 mph 27.6 mph 0.23 in Rain , Thunderstorm Light Thunderstorms and Rain
7:15 PM 64.8 °F - 61.3 °F 89% 29.91 in 10.0 mi NW 11.5 mph 21.9 mph N/A Rain , Thunderstorm Light Thunderstorms and Rain
7:35 PM 64.0 °F - 60.6 °F 89% 29.90 in 10.0 mi North 20.7 mph 26.5 mph 0.02 in Rain Light Rain
7:55 PM 63.7 °F - 59.5 °F 86% 29.93 in 10.0 mi NNW 16.1 mph 23.0 mph 0.02 in Rain Rain
8:15 PM 63.1 °F - 59.9 °F 89% 29.91 in 10.0 mi North 17.3 mph 24.2 mph 0.01 in Rain , Thunderstorm Light Thunderstorms and Rain
8:35 PM 63.1 °F - 60.1 °F 90% 29.95 in 10.0 mi NNW 10.4 mph - 0.02 in Rain Light Rain
8:55 PM 63.1 °F - 60.4 °F 91% 29.93 in 7.0 mi North 9.2 mph - 0.04 in Rain Light Rain
9:15 PM 63.5 °F - 60.8 °F 91% 29.96 in 5.0 mi Calm Calm - 0.02 in Rain Light Rain
9:35 PM 63.1 °F - 60.6 °F 91% 29.98 in 10.0 mi NNE 5.8 mph - 0.04 in Rain Rain
9:55 PM 63.0 °F - 60.4 °F 91% 30.00 in 10.0 mi North 3.5 mph - 0.04 in   Mostly Cloudy
10:15 PM 62.6 °F - 60.3 °F 92% 30.00 in 10.0 mi North 3.5 mph - N/A   Mostly Cloudy
10:35 PM 62.6 °F - 60.3 °F 92% 30.01 in 10.0 mi NNE 3.5 mph - N/A   Mostly Cloudy
10:55 PM 62.1 °F - 60.1 °F 93% 30.01 in 10.0 mi ENE 3.5 mph - N/A   Scattered Clouds
11:35 PM 61.5 °F - 59.7 °F 94% 30.01 in 10.0 mi Calm Calm - N/A   Scattered Clouds
11:55 PM 61.2 °F - 59.5 °F 94% 30.01 in 7.0 mi Calm Calm - N/A   Clear